Weather History for West Plains, MO

Change the Weather History Date:

Thursday, December 13, 2012

  Actual Average Record
Temperature  
Mean Temperature 42 °F 36 °F  
Max Temperature 53 °F 47 °F 72 °F (1948)
Min Temperature 31 °F 26 °F 5 °F (1961)
Degree Days  
Heating Degree Days 23 29  
Month to date heating degree days 228 350  
Since 1 July heating degree days 1172 1202  
Moisture  
Dew Point 22 °F    
Average Humidity 50    
Maximum Humidity 67    
Minimum Humidity 30    
Precipitation  
Precipitation 0.00 in 0.12 in 0.96 in (2000)
Month to date precipitation 0.54 1.92  
Year to date precipitation 30.46 44.50  
Sea Level Pressure  
Sea Level Pressure 30.29 in    
Wind  
Wind Speed 7 mph (South)    
Max Wind Speed 15 mph    
Max Gust Speed 18 mph    
Visibility 10 miles    
Events      
T = Trace of Precipitation, MM = Missing Value Source: NWS Daily Summary

Daily Weather History Graph

Daily Weather History Graph

Search for Another Location

Airport:

Trip Planner

Search our weather history database for the weather conditions in past years. The results will help you decide how hot, cold, wet, or windy it might be!

Date:

Astronomy

Dec. 13, 2012 Rise Set
Actual Time 7:12 AM CST 4:51 PM CST
Civil Twilight 6:43 AM CST 5:20 PM CST
Nautical Twilight 6:10 AM CST 5:53 PM CST
Astronomical Twilight 5:39 AM CST 6:24 PM CST
Moon 7:21 AM CST (12/13) 5:34 PM CST (12/13)
Length of Visible Light 10h 37m
Length of Day
9h 39m
Waxing Crescent, 0% of the Moon is Illuminated
Dec 13
Waxing Crescent
Dec 19
First Quarter
Dec 28
Full
Jan 4
Last Quarter
Jan 11
New

Hourly Weather History & Observations

Time (CST) Temp. Windchill Dew Point Humidity Pressure Visibility Wind Dir Wind Speed Gust Speed Precip Events Conditions
12:53 AM 34.0 °F 28.0 °F 21.0 °F 59% 30.32 in 10.0 mi South 6.9 mph - N/A   Clear
1:53 AM 33.1 °F 28.7 °F 21.0 °F 61% 30.32 in 10.0 mi South 4.6 mph - N/A   Clear
2:53 AM 32.0 °F 25.6 °F 21.0 °F 64% 30.33 in 10.0 mi South 6.9 mph - N/A   Clear
3:53 AM 33.1 °F 28.7 °F 21.9 °F 64% 30.32 in 10.0 mi South 4.6 mph - N/A   Clear
4:53 AM 33.1 °F 28.7 °F 21.0 °F 61% 30.31 in 10.0 mi South 4.6 mph - N/A   Clear
5:53 AM 32.0 °F 26.4 °F 21.9 °F 66% 30.33 in 10.0 mi South 5.8 mph - N/A   Clear
6:53 AM 30.9 °F 25.2 °F 21.0 °F 67% 30.33 in 10.0 mi South 5.8 mph - N/A   Clear
7:53 AM 33.1 °F 28.7 °F 21.9 °F 64% 30.35 in 10.0 mi South 4.6 mph - N/A   Clear
8:53 AM 36.0 °F 29.6 °F 21.9 °F 57% 30.35 in 10.0 mi South 8.1 mph - N/A   Clear
9:53 AM 41.0 °F 35.2 °F 23.0 °F 49% 30.35 in 10.0 mi SSE 9.2 mph - N/A   Clear
10:53 AM 46.0 °F 41.0 °F 21.0 °F 37% 30.33 in 10.0 mi South 10.4 mph - N/A   Clear
11:53 AM 48.0 °F - 19.9 °F 33% 30.30 in 10.0 mi South 11.5 mph - N/A   Clear
12:53 PM 50.0 °F - 21.9 °F 33% 30.28 in 10.0 mi South 10.4 mph - N/A   Clear
1:53 PM 52.0 °F - 21.0 °F 30% 30.26 in 10.0 mi South 9.2 mph - N/A   Clear
2:53 PM 52.0 °F - 21.0 °F 30% 30.24 in 10.0 mi South 9.2 mph - N/A   Clear
3:53 PM 51.1 °F - 21.9 °F 32% 30.24 in 10.0 mi SSE 9.2 mph - N/A   Clear
7:53 PM 42.1 °F 38.4 °F 21.0 °F 43% 30.23 in 10.0 mi SSE 5.8 mph - N/A   Clear
8:53 PM 39.9 °F 35.8 °F 21.9 °F 49% 30.24 in 10.0 mi South 5.8 mph - N/A   Clear
9:53 PM 39.0 °F 34.0 °F 21.9 °F 50% 30.23 in 10.0 mi SSE 6.9 mph - N/A   Clear
10:53 PM 37.0 °F 33.3 °F 21.9 °F 54% 30.25 in 10.0 mi South 4.6 mph - N/A   Clear
11:53 PM 37.9 °F 33.5 °F 23.0 °F 55% 30.23 in 10.0 mi South 5.8 mph - N/A   Clear